Location: Fort Worth, Tx
(32.7431°N, 97.3695°W)
Time: 16:58:32
(UTC-04:00)

A-11 Canister half - Pass Details

Date: 28 February 2024
Orbit: 1525 x 1683 km, 47.3° (Epoch: 21 April)

Event Time Altitude Azimuth Distance (km) Brightness Sun altitude
Rises 00:36:26 0° 291° (WNW) 4,730 11.9 -61.1°
Reaches altitude 10° 00:40:00 10° 302° (WNW) 3,728 11.3 -61.5°
Enters shadow 00:40:27 11° 303° (WNW) 3,611 11.2 -61.6°
